Everett, WA

9:28 PM PDT on July 25, 2017 (GMT -0700)
Snohomish County

Weather History for KPAE - September, 2013

Change the Weather History Date:

Friday, September 27, 2013

  Actual Average Record
Temperature  
Mean Temperature 52 °F -  
Max Temperature 55 °F 65 °F 75 °F (2006)
Min Temperature 50 °F 46 °F 33 °F (1972)
Degree Days  
Heating Degree Days 12    
Growing Degree Days 2 (Base 50)    
Moisture  
Dew Point 48 °F    
Average Humidity 83    
Maximum Humidity 94    
Minimum Humidity 76    
Precipitation  
Precipitation 0.04 in - - ()
Sea Level Pressure  
Sea Level Pressure 29.98 in    
Wind  
Wind Speed 10 mph (South)    
Max Wind Speed 20 mph    
Max Gust Speed 26 mph    
Visibility 10 miles    
Events Rain    
Averages and records for this station are not official NWS values.
T = Trace of Precipitation, MM = Missing Value Source: NWS Daily Summary

Daily Weather History Graph

Daily Weather History Graph

Search for Another Location

Airport or City:

Trip Planner

Search our weather history database for the weather conditions in past years. The results will help you decide how hot, cold, wet, or windy it might be!

Date:

Astronomy

Sep. 27, 2013 Rise Set
Actual Time 7:03 AM PDT 6:55 PM PDT
Civil Twilight 6:32 AM PDT 7:26 PM PDT
Nautical Twilight 5:56 AM PDT 8:02 PM PDT
Astronomical Twilight 5:19 AM PDT 8:39 PM PDT
Moon No Moon Rise 3:01 PM PDT (9/27)
Length of Visible Light 12h 54m
Length of Day
11h 52m
Last Quarter, 44% of the Moon is Illuminated
Sep 27
Last Quarter
Oct 4
New
Oct 11
First Quarter
Oct 18
Full
Oct 26
Last Quarter

Hourly Weather History & Observations

Time (PDT) Temp. Dew Point Humidity Pressure Visibility Wind Dir Wind Speed Gust Speed Precip Events Conditions
12:24 AM 51.8 °F 44.6 °F 76% 30.12 in 10.0 mi SSE 8.1 mph 16.1 mph N/A   Scattered Clouds
12:44 AM 51.8 °F 44.6 °F 76% 30.12 in 10.0 mi SSE 6.9 mph - N/A   Mostly Cloudy
12:51 AM 51.8 °F 44.6 °F 76% 30.12 in 10.0 mi Variable 5.8 mph - N/A   Scattered Clouds
12:53 AM 51.1 °F 45.0 °F 80% 30.12 in 10.0 mi Variable 3.5 mph - N/A   Scattered Clouds
1:53 AM 51.1 °F 45.0 °F 80% 30.12 in 10.0 mi Variable 4.6 mph - N/A   Clear
2:53 AM 50.0 °F 45.0 °F 83% 30.10 in 10.0 mi SSE 11.5 mph - N/A   Clear
3:53 AM 51.1 °F 46.0 °F 83% 30.08 in 10.0 mi SSE 10.4 mph - N/A   Mostly Cloudy
4:53 AM 51.1 °F 46.0 °F 83% 30.06 in 10.0 mi SSE 10.4 mph 17.3 mph N/A   Overcast
5:20 AM 51.8 °F 46.4 °F 82% 30.06 in 10.0 mi SSE 10.4 mph - N/A   Overcast
5:53 AM 52.0 °F 46.0 °F 80% 30.06 in 10.0 mi SSE 10.4 mph - N/A   Overcast
6:53 AM 52.0 °F 46.0 °F 80% 30.04 in 10.0 mi SSE 10.4 mph - 0.00 in Rain Light Rain
7:53 AM 52.0 °F 46.9 °F 83% 30.03 in 7.0 mi South 13.8 mph - 0.02 in Rain Light Rain
8:53 AM 52.0 °F 48.0 °F 86% 30.01 in 10.0 mi SSE 17.3 mph 24.2 mph 0.01 in Rain Light Rain
9:10 AM 51.8 °F 48.2 °F 88% 30.02 in 10.0 mi SSE 12.7 mph - 0.00 in   Overcast
9:28 AM 51.8 °F 48.2 °F 88% 30.01 in 8.0 mi SSE 13.8 mph 20.7 mph 0.01 in Rain Light Rain
9:53 AM 51.1 °F 48.0 °F 89% 30.01 in 10.0 mi SSE 12.7 mph - 0.01 in   Overcast
10:53 AM 52.0 °F 48.0 °F 86% 29.99 in 10.0 mi SSE 16.1 mph 23.0 mph N/A   Overcast
11:53 AM 54.0 °F 48.9 °F 83% 29.97 in 10.0 mi South 16.1 mph 23.0 mph N/A   Overcast
12:00 PM 53.6 °F 48.2 °F 82% 29.97 in 10.0 mi South 16.1 mph 23.0 mph N/A   Overcast
12:10 PM 53.6 °F 48.2 °F 82% 29.96 in 10.0 mi South 15.0 mph 21.9 mph N/A   Overcast
12:53 PM 55.0 °F 48.0 °F 77% 29.96 in 10.0 mi South 12.7 mph 25.3 mph N/A   Overcast
1:53 PM 55.0 °F 48.0 °F 77% 29.95 in 10.0 mi South 19.6 mph 24.2 mph N/A   Overcast
2:53 PM 55.0 °F 48.0 °F 77% 29.94 in 10.0 mi South 17.3 mph 26.5 mph N/A   Overcast
3:53 PM 55.0 °F 48.9 °F 80% 29.94 in 10.0 mi South 13.8 mph - N/A   Overcast
4:53 PM 54.0 °F 48.9 °F 83% 29.94 in 10.0 mi SSW 12.7 mph - N/A   Overcast
5:53 PM 54.0 °F 50.0 °F 86% 29.93 in 10.0 mi South 10.4 mph - N/A   Overcast
6:53 PM 54.0 °F 51.1 °F 90% 29.92 in 10.0 mi South 11.5 mph - N/A   Overcast
7:13 PM 53.6 °F 51.8 °F 94% 29.91 in 10.0 mi South 10.4 mph - N/A   Mostly Cloudy
7:15 PM 53.6 °F 51.8 °F 94% 29.91 in 10.0 mi South 8.1 mph - N/A   Overcast
7:53 PM 54.0 °F 50.0 °F 86% 29.90 in 10.0 mi South 8.1 mph - N/A   Overcast
8:00 PM 53.6 °F 50.0 °F 88% 29.90 in 10.0 mi South 11.5 mph - N/A   Mostly Cloudy
8:53 PM 55.0 °F 51.1 °F 86% 29.90 in 10.0 mi South 6.9 mph - N/A   Mostly Cloudy
9:16 PM 55.4 °F 50.0 °F 82% 29.89 in 10.0 mi SSE 8.1 mph - N/A   Overcast
9:37 PM 55.4 °F 50.0 °F 82% 29.88 in 10.0 mi SSE 9.2 mph - N/A   Overcast
9:53 PM 55.0 °F 50.0 °F 83% 29.89 in 10.0 mi South 9.2 mph - N/A   Overcast
10:01 PM 55.4 °F 50.0 °F 82% 29.88 in 10.0 mi SSE 10.4 mph - N/A   Overcast
10:16 PM 55.4 °F 50.0 °F 82% 29.87 in 10.0 mi SSE 10.4 mph - N/A   Overcast
10:53 PM 55.0 °F 50.0 °F 83% 29.86 in 10.0 mi South 12.7 mph - N/A   Scattered Clouds
11:53 PM 55.0 °F 50.0 °F 83% 29.85 in 10.0 mi South 12.7 mph - N/A   Partly Cloudy